Kuiper-00250

operational
NORAD ID: 67155 Int'l Des: 2025-301 Owner: KUIP Country: US Constellation: kuiper
LEOCIRCULAR

关于 Kuiper-00250

正在加载描述...

实时位置

正在加载3D地球...

即将过境

高度历史

Altitude vs Time

uPlot chart will show altitude changes over time

两行轨道根数

1 67155C 25301Y 25350.77789352 .00015225 00000+0 43750-3 0 3505
2 67155 51.8706 105.6455 0006263 105.3847 101.2025 15.35191733 14
Epoch: Dec 16, 2025 • Age: 64 hours

当前状态

高度 460.6 km
速度 7.64 km/s
星下点 45.86°N, 98.08°W
发射日期 Dec 16, 2025
运行时间 2 days
类型 internet

技术详情

分类 Payload
质量 490.00 kg
干质量 490.00 kg
总质量 490.00 kg
长度 1.80 m
直径 0.70 m
跨度 5.00 m
形状 Box + 2 pan
制造商 KUIP
平台类型 Kuiper
阶段状态 In Orbit
所有者/国家 KUIP/US

大型星座

Loading constellations...